Location: Rokycany
(49.7330°N, 13.6000°E)
Time: 18:04:24
(UTC+02:00)

ISS - Pass Details

Date: 30 March 2019
Orbit: 408 x 410 km, 51.6° (Epoch: 27 April)

Event Time Altitude Azimuth Distance (km) Brightness Sun altitude
Rises 19:13:15 0° 270° (W) 2,336 1.9 -7.1°
Reaches altitude 10° 19:15:21 10° 274° (W) 1,475 0.6 -7.5°
Maximum altitude 19:18:38 61° 356° (N) 471 -3.4 -8.0°
Drops below altitude 10° 19:21:55 10° 78° (ENE) 1,474 -1.5 -8.5°
Enters shadow 19:22:03 - 78° (ENE) 1,532 -1.4 -8.5°
